Weather History for Tupelo, MS

Change the Weather History Date:

Wednesday, November 9, 2011

  Actual Average Record
Temperature  
Mean Temperature 56 °F 55 °F  
Max Temperature 68 °F 67 °F 84 °F (2005)
Min Temperature 44 °F 44 °F 22 °F (1976)
Degree Days  
Heating Degree Days 9 10  
Month to date heating degree days 83 82  
Since 1 July heating degree days 272 230  
Cooling Degree Days 0 1  
Month to date cooling degree days 0 9  
Year to date cooling degree days 2259 2042  
Growing Degree Days 6 (Base 50)    
Moisture  
Dew Point 51 °F    
Average Humidity 68    
Maximum Humidity 87    
Minimum Humidity 48    
Precipitation  
Precipitation 0.22 in 0.13 in 3.70 in (1987)
Month to date precipitation 0.73 1.15  
Year to date precipitation 41.48 45.18  
Snow  
Snow 0.00 in 0.00 in 0.00 in (2002)
Month to date snowfall 0.0 0.0  
Since 1 July snowfall 0.0 0.0  
Since 1 September snowfall 0.0 0.0  
Snow Depth -    
Sea Level Pressure  
Sea Level Pressure 30.06 in    
Wind  
Wind Speed 9 mph (WNW)    
Max Wind Speed 16 mph    
Max Gust Speed 21 mph    
Visibility 9 miles    
Events Rain    
T = Trace of Precipitation, MM = Missing Value Source: NWS Daily Summary

Daily Weather History Graph

Daily Weather History Graph

Search for Another Location

Airport:

Trip Planner

Search our weather history database for the weather conditions in past years. The results will help you decide how hot, cold, wet, or windy it might be!

Date:

Astronomy

Nov. 09, 2011 Rise Set
Actual Time 6:22 AM CST 4:55 PM CST
Civil Twilight 5:55 AM CST 5:21 PM CST
Nautical Twilight 5:25 AM CST 5:51 PM CST
Astronomical Twilight 4:56 AM CST 6:21 PM CST
Moon 4:07 PM CST (11/9) 5:17 AM CST (11/9)
Length of Visible Light 11h 25m
Length of Day
10h 33m
Waxing Gibbous, 99% of the Moon is Illuminated
Nov 9
Waxing Gibbous
Nov 10
Full
Nov 18
Last Quarter
Nov 25
New
Dec 2
First Quarter

Hourly Weather History & Observations

Time (CST) Temp. Windchill Dew Point Humidity Pressure Visibility Wind Dir Wind Speed Gust Speed Precip Events Conditions
12:53 AM 64.9 °F - 61.0 °F 87% 29.98 in 10.0 mi SSW 9.2 mph - 0.03 in Rain Light Rain
1:53 AM 66.0 °F - 60.1 °F 81% 29.97 in 10.0 mi SSW 12.7 mph - 0.00 in   Scattered Clouds
2:53 AM 66.0 °F - 59.0 °F 78% 29.95 in 10.0 mi SSW 15.0 mph - N/A   Mostly Cloudy
3:53 AM 64.0 °F - 60.1 °F 87% 29.96 in 10.0 mi SSW 11.5 mph - 0.02 in   Mostly Cloudy
4:01 AM 64.4 °F - 60.8 °F 88% 29.97 in 10.0 mi SW 11.5 mph - N/A   Mostly Cloudy
4:15 AM 64.4 °F - 60.8 °F 88% 29.98 in 10.0 mi SW 10.4 mph - 0.00 in Rain Light Rain
4:43 AM 62.6 °F - 60.8 °F 94% 29.98 in 5.0 mi SW 9.2 mph - 0.02 in Rain Rain
4:53 AM 63.0 °F - 60.1 °F 90% 29.97 in 10.0 mi SW 9.2 mph - 0.02 in Rain Light Rain
5:53 AM 63.0 °F - 61.0 °F 93% 29.98 in 7.0 mi SW 5.8 mph - 0.04 in   Overcast
6:08 AM 62.6 °F - 60.8 °F 94% 29.98 in 4.0 mi SW 8.1 mph - 0.02 in Rain Rain
6:16 AM 62.6 °F - 60.8 °F 94% 29.99 in 5.0 mi SW 8.1 mph - 0.03 in Rain Light Rain
6:33 AM 62.6 °F - 60.8 °F 94% 29.99 in 4.0 mi WSW 4.6 mph - 0.05 in Rain Light Rain
6:53 AM 57.9 °F - 54.0 °F 87% 30.01 in 10.0 mi Variable 5.8 mph - 0.06 in   Overcast
7:42 AM 55.4 °F - 53.6 °F 94% 30.03 in 10.0 mi NW 3.5 mph - N/A   Overcast
7:53 AM 55.9 °F - 53.1 °F 90% 30.04 in 9.0 mi West 3.5 mph - 0.00 in Rain Light Rain
8:10 AM 55.4 °F - 53.6 °F 94% 30.06 in 2.5 mi WSW 4.6 mph - 0.00 in Rain Rain
8:23 AM 55.4 °F - 53.6 °F 94% 30.05 in 7.0 mi Calm Calm - 0.05 in Rain Light Rain
8:53 AM 57.0 °F - 54.0 °F 89% 30.05 in 10.0 mi West 3.5 mph - 0.05 in   Overcast
9:40 AM 57.2 °F - 53.6 °F 88% 30.07 in 10.0 mi Variable 5.8 mph - N/A   Overcast
9:53 AM 59.0 °F - 53.1 °F 81% 30.06 in 10.0 mi NW 6.9 mph - N/A   Overcast
10:21 AM 60.8 °F - 51.8 °F 72% 30.07 in 10.0 mi WNW 6.9 mph - N/A   Mostly Cloudy
10:50 AM 60.8 °F - 51.8 °F 72% 30.08 in 10.0 mi NW 9.2 mph 17.3 mph N/A   Mostly Cloudy
10:53 AM 60.1 °F - 50.0 °F 69% 30.07 in 10.0 mi NNW 8.1 mph 17.3 mph N/A   Mostly Cloudy
11:00 AM 62.6 °F - 51.8 °F 68% 30.08 in 10.0 mi North 12.7 mph 16.1 mph N/A   Scattered Clouds
11:53 AM 63.0 °F - 46.0 °F 54% 30.06 in 10.0 mi North 11.5 mph 18.4 mph N/A   Clear
12:53 PM 64.0 °F - 45.0 °F 50% 30.05 in 10.0 mi North 9.2 mph 16.1 mph N/A   Partly Cloudy
1:53 PM 63.0 °F - 43.0 °F 48% 30.05 in 10.0 mi North 15.0 mph 19.6 mph N/A   Clear
2:53 PM 62.1 °F - 43.0 °F 50% 30.06 in 10.0 mi NW 6.9 mph - N/A   Partly Cloudy
3:53 PM 60.1 °F - 41.0 °F 49% 30.08 in 10.0 mi NNW 5.8 mph - N/A   Partly Cloudy
4:53 PM 57.0 °F - 39.0 °F 51% 30.11 in 10.0 mi North 9.2 mph - N/A   Clear
5:53 PM 54.0 °F - 39.0 °F 57% 30.14 in 10.0 mi North 6.9 mph - N/A   Clear
6:53 PM 52.0 °F - 37.9 °F 59% 30.16 in 10.0 mi North 8.1 mph - N/A   Clear
7:53 PM 50.0 °F - 37.0 °F 61% 30.18 in 10.0 mi North 10.4 mph - N/A   Clear
8:53 PM 48.9 °F - 37.0 °F 64% 30.20 in 10.0 mi North 11.5 mph - N/A   Clear
9:53 PM 46.9 °F - 37.0 °F 68% 30.23 in 10.0 mi North 8.1 mph - N/A   Clear
10:53 PM 45.0 °F 40.6 °F 36.0 °F 71% 30.22 in 10.0 mi North 8.1 mph - N/A   Clear
11:53 PM 44.1 °F 40.1 °F 36.0 °F 73% 30.22 in 10.0 mi North 6.9 mph - N/A   Clear